www.pogodaiklimat.ru

Погода и климат >> Архив погоды >> Россия >> Новгородская область >> Боровичи


ПОГОДА в Боровичах

  • Прогноз погоды в Боровичах
  • Монитор погоды в Боровичах
  • Климат города

АРХИВ ПОГОДЫ в Боровичах

Время (UTC), дата Ветер
(напр.,м/с)
 
Видим.   Явления Облачность Т
(С)
Тd
(С)
f
(%)
Тe
(С)
Тes
(С)
Комфортность P
(гПа)
Po
(гПа)
Тmin
(С)
Tmax
(С)
R
(мм)
R24
(мм)
S
(см)
18 12.09 ЮВ 2 20 км 1/0
[Ci fib]
+19.6 +16.6 83 +22 +22 комфорт 1005.2 994.9 +25.6
21 12.09 штиль 0 20 км ясно +18.6 +16.3 86 +19 +19 1005.3 995.0
00 13.09 ЮВ 1 20 км ясно +17.2 +15.4 89 +18 +18 1004.1 993.7
03 13.09 ЮВ 1 20 км 3/3 600 м
[Sc]
+16.2 +14.4 89 +17 +17 1002.3 991.9 +16.2
06 13.09 ЮВ 2 20 км 9/0
[Ac trans Cs]
+18.6 +14.5 77 +20 +21 1000.2 989.9 +15.9
09 13.09 Ю 3 20 км 9/5 600 м
[Sc Ac As Cs]
+23.7 +14.5 56 +26 +28 жарко 997.8 987.8
12 13.09 Ю 2 20 км 9/5 600 м
[Sc Ac trans Cs]
+25.5 +14.3 50 +28 +29 жарко 996.2 986.2
15 13.09 З 2 10 км гроза, ливневой дождь 10/8 300 м
[Cb cap Ac und]
+16.1 +15.5 96 +16 +16 995.9 985.6 49
18 13.09 З 1 10 км слабый ливневой дождь {гроза} 10/10 450 м
[Cb calv]
+14.7 +14.1 96 +15 +15 996.7 986.3 +25.7 52
21 13.09 З 3 10 км слабый ливневой дождь 10/10 240 м
[Cb calv]
+13.9 +13.2 96 +13 +13 997.1 986.7
00 14.09 штиль 0 20 км {ливн. осадки} 10/8 300 м
[Sc Ac und]
+12.9 +12.1 95 +12 +12 997.8 987.3
03 14.09 Ю 1 20 км 9/6 300 м
[Sc Ac trans]
+12.6 +10.9 89 +13 +13 996.7 986.2 +12.6 5
06 14.09 Ю 2 20 км {ливн. осадки} 9/5 300 м
[Sc Ac As]
+13.0 +11.2 89 +12 +13 994.3 983.9 +12.3 2
09 14.09 Ю 3 10 км слабый ливневой дождь 10/10 900 м
[Cb calv]
+13.2 +11.1 87 +12 +12 992.5 982.1
12 14.09 З 1
{10}
20 км в посл. час ливневой дождь 10/8 540 м
[Sc Ac As]
+13.8 +11.1 84 +14 +14 994.7 984.3
15 14.09 З 1 20 км {ливн. осадки} 8/8 300 м
[Sc]
+13.3 +10.6 84 +13 +14 996.5 986.1 3
18 14.09 Ю 3 20 км {ливн. осадки} 3/3 300 м
[Sc]
+12.6 +9.9 84 +11 +11 997.6 987.1 +14.1 3
21 14.09 Ю 2 20 км 4/4 600 м
[Sc]
+11.8 +9.2 84 +11 +11 997.7 987.2
00 15.09 Ю 2 20 км 10/0
[Ac und]
+11.8 +10.0 89 +11 +11 997.5 987.0
03 15.09 Ю 1 20 км 10/0
[Ac und]
+12.3 +10.6 89 +12 +12 996.8 986.3 +11.3
06 15.09 Ю 2 20 км в посл. час ливневой дождь 10/3 300 м
[Cb calv Ac und]
+13.0 +11.0 88 +12 +13 996.5 986.1 +11.3 0.0
09 15.09 Ю 1 10 км слабый ливневой дождь 10/5 300 м
[Cb calv Ac und]
+12.8 +10.9 88 +13 +14 995.6 985.2
12 15.09 ЮЗ 2 10 км слабый ливневой дождь 10/6 300 м
[Cb calv Ac As]
+12.2 +9.4 83 +11 +12 995.8 985.3
15 15.09 ЮЗ 2 10 км слабый ливневой дождь 10/10 600 м
[Cb calv]
+11.3 +9.5 89 +10 +10 995.3 984.8 2
18 15.09 З 1 20 км {ливн. осадки} 10/10 400 м
[Sc]
+11.0 +9.3 89 +11 +11 997.1 986.5 +13.6 3
21 15.09 З 2 10 км слабый ливневой дождь 10/10 360 м
[Cb calv]
+11.3 +9.9 91 +10 +10 1000.4 989.8
00 16.09 З 1 20 км {ливн. осадки} 9/6 300 м
[Sc Ac As]
+10.6 +9.5 93 +10 +10 1003.7 993.0
03 16.09 З 2 20 км 3/3 300 м
[Sc]
+10.6 +9.0 90 +9 +9 1006.0 995.4 +10.3 2
06 16.09 ЮЗ 1 20 км 10/10 660 м
[Sc]
+12.2 +9.7 85 +12 +12 1008.5 997.9 +10.2 0.4
09 16.09 З 2 20 км в посл. час ливневой дождь 9/9 600 м
[Sc]
+14.1 +10.2 77 +14 +14 1010.6 1000.0
12 16.09 З 2 10 км слабый ливневой дождь 8/8 600 м
[Cb calv]
+14.0 +11.2 83 +13 +14 1012.3 1001.7
15 16.09 ЮЗ 1 20 км {ливн. осадки} 4/4 600 м
[Sc]
+14.8 +8.6 66 +15 +16 1013.2 1002.6 0.6
18 16.09 З 1 20 км {ливн. осадки} 3/3 300 м
[Sc]
+12.0 +8.0 76 +12 +12 1015.3 1004.6 +16.7 0.6
21 16.09 З 1 20 км ясно +10.8 +8.2 84 +10 +10 1016.3 1005.5
00 17.09 З 1 20 км ясно +9.7 +8.1 90 +9 +9 1017.7 1006.9
03 17.09 штиль 0 20 км ясно +8.4 +7.2 92 +7 +7 1018.7 1007.8 +8.3
06 17.09 штиль 0 20 км 9/0
[Ci]
+11.3 +8.3 82 +11 +13 1019.6 1008.8 +7.6
09 17.09 ЮЗ 1 20 км 6/0
[Ac trans Ci fib]
+15.7 +9.1 65 +16 +22 1019.7 1009.1
12 17.09 Ю 1 20 км 8/5 600 м
[Cu Sc Ac trans Ci fib]
+15.9 +9.9 68 +17 +18 1018.9 1008.3
15 17.09 штиль 0 20 км 9/0
[Ac trans Cs]
+14.6 +10.3 75 +14 +15 1017.9 1007.3
18 17.09 В 1 20 км 3/0
[Ci fib]
+11.2 +9.9 92 +11 +11 1017.6 1006.9 +17.7
21 17.09 В 1 20 км 6/0
[Ci fib]
+10.8 +9.5 92 +10 +10 1016.1 1005.4
00 18.09 В 1 10 км слабый ливневой дождь 10/10 1320 м
[Cb calv]
+11.1 +9.8 92 +11 +11 1014.0 1003.2
03 18.09 В 2 20 км {ливн. осадки} 10/10 660 м
[Sc]
+11.3 +9.8 90 +10 +10 1011.2 1000.5 +10.8 0.0
06 18.09 В 2 20 км {ливн. осадки} 10/10 240 м
[St]
+11.7 +10.2 91 +11 +11 1008.7 998.1 +10.8 0.0
09 18.09 В 2 10 км слабый ливневой дождь 10/10 240 м
[Cb calv]
+12.0 +10.8 92 +11 +11 1004.7 994.2
12 18.09 В 2 10 км слабый ливневой дождь {гроза} 10/10 210 м
[Cb calv]
+13.0 +11.6 91 +12 +12 1001.3 990.8
15 18.09 ЮВ 1 20 км {ливн. осадки} 3/3 300 м
[Sc]
+15.1 +13.1 88 +16 +16 998.6 988.2 3
18 18.09 Ю 1 20 км {гроза, ливн. осадки} 10/8 600 м
[Sc Ac und]
+13.7 +13.0 96 +14 +14 998.0 987.5 +15.2 12
21 18.09 ЮВ 2 20 км 10/0
[Ac und]
+12.2 +9.2 82 +11 +11 996.7 986.2
00 19.09 Ю 2 10 км слабый ливневой дождь 10/10 800 м
[Cb calv]
+11.2 +9.8 91 +10 +10 995.0 984.5
03 19.09 Ю 2 10 км слабый ливневой дождь 10/10 300 м
[Cb calv]
+11.4 +10.3 93 +10 +10 994.5 984.0 +11.1 11
06 19.09 З 2 20 км {ливн. осадки} 10/10 360 м
[Sc]
+12.5 +11.0 91 +12 +12 996.6 986.2 +11.1 2
09 19.09 З 2 10 км слабый ливневой дождь 10/10 840 м
[Cb calv]
+12.2 +10.4 89 +11 +11 1000.8 990.2
12 19.09 З 4-11
{11}
10 км слабый ливневой дождь 10/10 480 м
[Cb calv]
+11.8 +9.1 84 +10 +10 1005.6 995.0

 

Местоположение метеостанции Боровичи (Новгородская область, Россия): широта 58.42 долгота 33.90 высота над уровнем моря 89 м.

В архиве по умолчанию представлена погода в Боровичах за последнюю неделю. Архивные данные за месяц целиком и за предыдущие месяцы, начиная с января 2011 года, Вы можете получить, выбрав интересующий диапазон дат из раскрывающегося списка и нажав кнопку "Ввод!".

Внимание! Время в таблицах - всемирное. Для получения местного времени необходимо прибавить поправку, которая в Боровичах равна 3 ч.

Смотрите также архив погоды в соседних городах и на ближайших метеорологических станциях:

Погода в Бологом (Тверская область, Россия) (61 км)
Погода в Валдае (Новгородская область, Россия) (61 км)
Погода в Охонах (Новгородская область, Россия) (79 км)
Погода в Крестцах (Новгородская область, Россия) (82 км)
Погода в Вышнем Волочке (Тверская область, Россия) (106 км)
Погода в Демянске (Новгородская область, Россия) (120 км)
Погода в Ефимовской (Ленинградская область, Россия) (129 км)
Погода в Максатихе (Тверская область, Россия) (136 км)
Погода в Тихвине (Ленинградская область, Россия) (138 км)
Погода в Осташкове (Тверская область, Россия) (153 км)

Пояснения к столбцам:

Ветер - указаны скорость ветра в м/с - средняя за 10 мин, порывы в срок и между сроками (в фигурных скобках) и направление, откуда дует ветер: С - северный, СВ - северо-восточный, В - восточный, ЮВ - юго-восточный, Ю - южный, ЮЗ - юго-западный, З - западный, СЗ - северо-западный.
Видимость - горизонтальная дальность видимости в метрах или километрах. При видимости от 1 до 10 км при отсутствии осадков обычно наблюдается дымка, при ухудшении видимости до 1 км и менее - туман. В сухую погоду видимость может ухудшаться дымом, пылью или мглою.
Явления - указаны атмосферные явления, наблюдавшиеся в срок или в последний час перед сроком; фигурными скобками обозначены явления, наблюдавшиеся между сроками (за 1-3 часа до срока); квадратными скобками обозначены град или гололедные отложения с указанием их диаметра в мм.
Облачность - указаны через наклонную черту общая и нижняя облачность в баллах и высота нижней границы облаков в метрах; квадратными скобками обозначены формы облаков: Ci - перистые, Cs - перисто-слоистые, Cc - перисто-кучевые, Ac - высококучевые, As - высокослоистые, Sc - слоисто-кучевые, Ns - слоисто-дождевые, Cu - кучевые, Cb - кучево-дождевые. Подробнее классификацию облаков см. в Атласе облаков (PDF).
T - Температура воздуха - температура, измеренная на высоте 2 м над землей.
Td - Температура точки росы - температура, при понижении до которой содержащийся в воздухе водяной пар достигнет насыщения.
f - Относительная влажность воздуха - влажноcть воздуха, измеренная на высоте 2 м над землей.
Te - Эффективная температура - температура, которую ощущает одетый по сезону человек в тени. Характеристика душности погоды. При расчете учитывается влияние влажности воздуха и скорости ветра на теплоощущения человека.
Tes - Эффективная температура на солнце - температура, которую ощущает человек, с поправкой на солнечный нагрев. Характеристика знойности погоды. Зависит от высоты солнца над горизонтом, облачности и скорости ветра. Ночью, в пасмурную погоду, а также при ветре 12 м/с и более поправка равна нулю.
P - Атмосферное давление - приведенное к уровню моря атмосферное давление.
Po - Атмосферное давление - измеренное на уровне метеостанции атмосферное давление.
Tmin - Минимальная температура - минимум температуры воздуха на высоте 2 м над землей.
Tmax - Максимальная температура - максимум температуры воздуха на высоте 2 м над землей.
R - Количество осадков - Количество выпавших осадков за период времени, мм. При наведении курсора мыши на число - период времени, за который выпало указанное количество осадков.
R24 - Количество осадков - Количество выпавших осадков за 24 часа, мм.
S - Снежный покров - Высота снежного покрова, см. При наведении курсора мыши на число - состояние снежного покрова и степень покрытия местности в баллах.